Date String (YYYY-MM-DD hh:mm:ss) UTC,Instrument flags,Ambient pressure (hPa),Sample flow (lpm),Bypass flow (lpm),Sample temperature (°C),Ambient temperature (°C),ASC tube jacket temperature (°C),LED temperature (°C),Box temperature (°C),Sample RH (%),Span deviation,Mass concentration (μg/m³),Mass concentration (μg/m³),Mass concentration (μg/m³)
DateTimeUTC,F1_M11,P_M11,Q1_M11,Q2_M11,T1_M11,T2_M11,T3_M11,T4_M11,T5_M11,U1_M11,ZSPAN_M11,X0_M11,X2_M11,X1_M11
2022-02-24 11:00:00,,0819.7,5.00,0.00,22.4,21.6,00.0,31.4,24.1,04.5,0000.0,0008.33,0004.77,0004.38
2022-02-24 11:01:00,,0819.6,5.00,0.00,22.4,21.4,00.0,31.4,24.0,04.6,0000.0,0008.29,0004.77,0004.38
2022-02-24 11:02:00,,0819.6,5.00,0.00,22.3,21.3,00.0,31.4,23.9,04.6,0000.0,0007.98,0004.80,0004.39
2022-02-24 11:03:00,,0819.6,5.00,0.00,22.3,21.6,00.0,31.4,23.9,04.6,0000.0,0007.89,0004.80,0004.41
2022-02-24 11:04:00,,0819.7,5.00,0.00,22.4,22.4,00.0,31.4,24.1,04.6,0000.0,0007.92,0004.79,0004.41
2022-02-24 11:05:00,,0819.7,5.01,0.00,22.5,23.1,00.0,31.4,24.4,04.5,0000.0,0007.89,0004.79,0004.42
2022-02-24 11:06:00,,0819.7,5.00,0.00,22.7,23.4,00.0,31.5,24.6,04.5,0000.0,0007.99,0004.81,0004.45
2022-02-24 11:07:00,,0819.7,5.00,0.00,22.7,23.0,00.0,31.5,24.6,04.5,0000.0,0007.94,0004.81,0004.46
2022-02-24 11:08:00,,0819.6,5.00,0.00,22.7,22.6,00.0,31.5,24.5,04.5,0000.0,0008.09,0004.90,0004.50
2022-02-24 11:09:00,,0819.5,5.00,0.00,22.6,22.3,00.0,31.5,24.4,04.5,0000.0,0008.59,0004.94,0004.52
2022-02-24 11:10:00,,0819.5,5.00,0.00,22.6,22.0,00.0,31.5,24.3,04.5,0000.2,0008.90,0004.99,0004.55
2022-02-24 11:11:00,,0819.5,5.00,0.00,22.5,21.7,00.0,31.5,24.2,04.5,-000.1,0008.67,0005.00,0004.56
2022-02-24 11:12:00,,0819.5,4.99,0.00,22.5,21.5,00.0,31.5,24.1,04.6,-000.0,0008.64,0005.01,0004.57
2022-02-24 11:13:00,,0819.4,5.01,0.00,22.4,21.4,00.0,31.4,24.0,04.6,0000.2,0008.64,0005.01,0004.57
2022-02-24 11:14:00,,0819.4,5.00,0.00,22.3,21.3,00.0,31.4,24.0,04.6,0000.0,0008.67,0005.03,0004.58
2022-02-24 11:15:00,,0819.4,4.99,0.00,22.3,21.4,00.0,31.4,24.0,04.6,0000.0,0008.68,0005.06,0004.61
2022-02-24 11:16:00,,0819.4,5.00,0.00,22.4,22.2,00.0,31.4,24.1,04.6,0000.0,0008.77,0005.11,0004.64
2022-02-24 11:17:00,,0819.4,4.99,0.00,22.5,22.9,00.0,31.5,24.3,04.6,0000.0,0008.82,0005.15,0004.66
2022-02-24 11:18:00,,0819.4,5.01,0.00,22.6,23.0,00.0,31.5,24.5,04.6,0000.0,0008.92,0005.18,0004.67
2022-02-24 11:19:00,,0819.4,5.01,0.00,22.6,22.7,00.0,31.5,24.4,04.6,0000.0,0008.75,0005.12,0004.66
2022-02-24 11:20:00,,0819.4,5.00,0.00,22.6,22.3,00.0,31.5,24.3,04.6,0000.0,0008.25,0005.11,0004.67
2022-02-24 11:21:00,,0819.4,5.00,0.00,22.5,22.0,00.0,31.5,24.2,04.6,0000.0,0008.03,0005.09,0004.66
2022-02-24 11:22:00,,0819.4,4.99,0.00,22.5,21.8,00.0,31.4,24.2,04.6,0000.0,0008.04,0005.10,0004.67
2022-02-24 11:23:00,,0819.4,4.99,0.00,22.4,21.5,00.0,31.4,24.1,04.6,0000.0,0008.10,0005.12,0004.67
2022-02-24 11:24:00,,0819.5,5.01,0.00,22.4,21.4,00.0,31.4,24.0,04.6,0000.0,0008.08,0005.11,0004.66
2022-02-24 11:25:00,,0819.5,5.00,0.00,22.3,21.4,00.0,31.4,24.0,04.6,0000.0,0008.03,0005.10,0004.64
2022-02-24 11:26:00,,0819.6,5.00,0.00,22.4,22.1,00.0,31.4,24.1,04.6,0000.0,0008.00,0005.07,0004.59
2022-02-24 11:27:00,,0819.6,4.99,0.00,22.5,22.8,00.0,31.4,24.3,04.6,0000.0,0007.96,0005.04,0004.55
2022-02-24 11:28:00,,0819.7,5.00,0.00,22.6,23.1,00.0,31.5,24.5,04.5,0000.0,0007.89,0005.00,0004.51
2022-02-24 11:29:00,,0819.7,5.00,0.00,22.6,22.7,00.0,31.5,24.5,04.5,0000.0,0007.76,0004.94,0004.46
2022-02-24 11:30:00,,0819.7,4.99,0.00,22.6,22.3,00.0,31.5,24.4,04.5,0000.0,0007.83,0004.92,0004.41
2022-02-24 11:31:00,,0819.7,5.00,0.00,22.5,22.0,00.0,31.5,24.3,04.5,0000.0,0007.90,0004.88,0004.37
2022-02-24 11:32:00,,0819.7,5.01,0.00,22.5,21.7,00.0,31.4,24.2,04.6,0000.0,0007.83,0004.84,0004.33
2022-02-24 11:33:00,,0819.6,5.01,0.00,22.4,21.5,00.0,31.4,24.1,04.6,0000.0,0007.86,0004.83,0004.31
2022-02-24 11:34:00,,0819.5,4.99,0.00,22.4,21.3,00.0,31.4,24.0,04.6,0000.0,0007.80,0004.80,0004.29
2022-02-24 11:35:00,,0819.6,4.99,0.00,22.3,21.3,00.0,31.4,23.9,04.6,0000.0,0007.80,0004.78,0004.27
2022-02-24 11:36:00,,0819.6,5.01,0.00,22.4,21.9,00.0,31.4,24.0,04.6,0000.0,0007.75,0004.74,0004.26
2022-02-24 11:37:00,,0819.7,4.99,0.00,22.5,22.7,00.0,31.4,24.3,04.6,0000.0,0008.00,0004.72,0004.25
2022-02-24 11:38:00,,0819.7,5.01,0.00,22.6,23.0,00.0,31.5,24.4,04.5,0000.0,0008.40,0004.70,0004.25
2022-02-24 11:39:00,,0819.6,4.98,0.00,22.6,22.7,00.0,31.5,24.4,04.5,0000.0,0008.44,0004.70,0004.24
2022-02-24 11:40:00,,0819.6,5.01,0.00,22.6,22.4,00.0,31.5,24.4,04.5,0000.1,0008.43,0004.70,0004.25
2022-02-24 11:41:00,,0819.6,5.00,0.00,22.5,22.1,00.0,31.5,24.3,04.5,0000.7,0008.36,0004.70,0004.25
2022-02-24 11:42:00,,0819.5,5.00,0.00,22.5,21.8,00.0,31.4,24.2,04.6,0000.0,0008.29,0004.71,0004.25
2022-02-24 11:43:00,,0819.5,5.00,0.00,22.4,21.6,00.0,31.4,24.1,04.6,-000.1,0008.36,0004.71,0004.24
2022-02-24 11:44:00,,0819.6,5.00,0.00,22.4,21.4,00.0,31.4,24.0,04.6,-000.6,0008.35,0004.69,0004.23
2022-02-24 11:45:00,,0819.6,4.99,0.00,22.3,21.3,00.0,31.4,23.9,04.6,-000.2,0008.39,0004.69,0004.22
2022-02-24 11:46:00,,0819.6,5.00,0.00,22.3,21.9,00.0,31.4,24.0,04.6,0000.0,0008.44,0004.70,0004.22
2022-02-24 11:47:00,,0819.6,5.01,0.00,22.5,22.7,00.0,31.4,24.2,04.6,0000.0,0008.56,0004.73,0004.22
2022-02-24 11:48:00,,0819.6,4.99,0.00,22.6,23.2,00.0,31.5,24.4,04.5,0000.0,0008.27,0004.73,0004.21
2022-02-24 11:49:00,,0819.5,5.01,0.00,22.6,22.9,00.0,31.5,24.5,04.5,0000.0,0007.97,0004.73,0004.20
2022-02-24 11:50:00,,0819.5,4.99,0.00,22.6,22.5,00.0,31.5,24.4,04.5,0000.0,0007.88,0004.71,0004.19
2022-02-24 11:51:00,,0819.5,5.00,0.00,22.6,22.2,00.0,31.5,24.3,04.5,0000.0,0007.84,0004.70,0004.19
2022-02-24 11:52:00,,0819.6,5.00,0.00,22.5,21.9,00.0,31.4,24.2,04.5,0000.0,0007.91,0004.71,0004.19
2022-02-24 11:53:00,,0819.6,5.00,0.00,22.4,21.6,00.0,31.4,24.1,04.5,0000.0,0007.92,0004.69,0004.18
2022-02-24 11:54:00,,0819.7,5.01,0.00,22.4,21.4,00.0,31.4,24.1,04.5,0000.0,0007.87,0004.69,0004.19
2022-02-24 11:55:00,,0819.7,4.99,0.00,22.3,21.3,00.0,31.4,24.0,04.6,0000.0,0007.86,0004.68,0004.18
2022-02-24 11:56:00,,0819.7,5.01,0.00,22.3,21.4,00.0,31.4,23.9,04.6,0000.0,0007.80,0004.66,0004.17
2022-02-24 11:57:00,,0819.7,4.99,0.00,22.4,22.2,00.0,31.4,24.1,04.5,0000.0,0007.93,0004.67,0004.17
2022-02-24 11:58:00,,0819.7,5.01,0.00,22.5,23.0,00.0,31.4,24.4,04.5,0000.0,0007.90,0004.62,0004.17
2022-02-24 11:59:00,,0819.7,4.99,0.00,22.6,23.1,00.0,31.5,24.5,04.5,0000.0,0007.86,0004.60,0004.17
